CZ-6A DEB

Satellite information

Favourite Embed

Satellite Type and Status

DEBRISIN ORBIT

Key statistics

Satellite CZ-6A DEB at a glance.

Uptime

910

Days in orbit

Revolutions

≈ 14.5

Per day

Orbit

SSO

Sun Synchronous Orbit

Inclination

98.5

Latest

Satellite identification and parameters

Extended collection of information and parameters for CZ-6A DEB.

Object identification

Identified? True

Debris? True

Object name: CZ-6A DEB

International designator: 2022-151DT

Object number (NORAD): 54395

Object ID (CCSDS): 54395

Country: PEOPLES REPUBLIC OF CHINA (PRC)

Current information (Y/N): Y

RCS size: SMALL

Orbital parameters

Period: 99.273 minutes

Inclination: 98.4964 deg

SMA: 7101.988 km

Apoapsis: 814.92 km

Periapsis: 632.786 km

RAAN: 148.5865 deg

Eccentricy: 0.0128227

Argument of periapsis: 90.6417 deg

Mean anomaly: 270.9471 deg

Mean motion: 14.5055055 rev/day

Mean motion (dot): 0.00005112 rev/day2

B* drag term: 0.0011845 1/REarth

Two-line elements (TLE)

Creation date: May 7, 2025, 10:36 p.m.

Reference frame: TEME

Reference center: EARTH

Epoch: May 7, 2025, 7:20 p.m. UTC

TLE line 0: 0 CZ-6A DEB

TLE line 1: 1 54395U 22151DT 25127.80575976 .00005112 00000-0 11845-2 0 9991

TLE line 2: 2 54395 98.4964 148.5865 0128227 90.6417 270.9471 14.50550550130727

Live tracking on map

Real-time ground track for satellite CZ-6A DEB.

In-orbit conjunctions

A list of the most updated potential collisions computed for object CZ-6A DEB.

Target Orbit TCA Probability of collision Miss distance Type
XSS 10 LEO 2024-09-21 23:25:08 0.0001281942 599.0 (m) PAYLOAD

Associated space launch

Chinese satellite reported for atmospheric/ocean/environmental/spatial parameter research purposes, details TBD.

CZ-6A DEB was lifted into orbit during the mission ‘Long March 6A | Yunhai 3’, on board a Long March 6A space rocket.

The launch took place on Nov. 11, 2022, 10:52 p.m. from Launch Complex 9A.

For more information about the launch, click the button.

Launch to space Long March 6A | Yunhai 3
Long March 6A | Yunhai 3

Agency: N/A

Status: Launch Successful

Launch date: Nov. 11, 2022, 10:52 p.m. UTC

Rocket: Long March 6A

Launch pad: Launch Complex 9A

Location: Taiyuan Satellite Launch Center, People's Republic of China

...

Latest news about this satellite

There are no fresh news available about this satellite. Check back as we update our databases every day.


Newsletter sign-up

Weekly statistics, charts and insights to help you stay on top of the space industry.